Location: *
(46.1833°N, 22.7667°E)
Time: 08:51:47
(UTC+00:00)

Cosmos 1544 Rocket - Pass Details

Date: 17 September 2019
Orbit: 603 x 632 km, 82.5° (Epoch: 23 October)

Event Time Altitude Azimuth Distance (km) Brightness Sun altitude
Exits shadow 18:23:41 36° 83° (E) 1,012 4.2 -18.6°
Drops below altitude 10° 18:27:32 10° 25° (NNE) 2,023 6.2 -19.2°
Sets 18:29:54 0° 17° (NNE) 2,934 7.1 -19.6°
